DW2770 Cefalu IT current weather conditions

sailwx.info

Wind from 114

Air temperature 12.2° C
Dewpoint 7.1° C

Last reported at 2020-Feb-21 17:00 UTC.
Time now 2020-Feb-21 17:40 UTC

Location: N 38°02' E 014°02'.
View on Google Maps.

See reports from other nearby stations

  
Tides and Currents Weather Stations Pressure Air Temp Water Temp Dewpoint Dewpoint Depression Visibility Wind Speed Wind Dir Waves Ship Positions
date/time (UTC)wind fromknots sea level pressurealtimeterstation pressurevisibilityair tempwater tempwave heightnotes
2020-Feb-21 17:00 114 12.2
2020-Feb-21 16:50 175 0 gusting 1 12.8
2020-Feb-21 16:40 158 1 gusting 2 13.3
2020-Feb-21 16:30 194 0 gusting 2 13.9
2020-Feb-21 16:20 292 1 gusting 1 13.9
2020-Feb-21 16:10 225 1 gusting 2 13.9
2020-Feb-21 15:20 254 0 gusting 6 14.4
2020-Feb-21 15:10 338 2 gusting 2 14.4
2020-Feb-21 15:00 308 2 gusting 4 14.4
2020-Feb-21 14:50 159 4 gusting 4 14.4
2020-Feb-21 14:30 330 2 gusting 4 14.4
2020-Feb-21 14:20 018 3 gusting 6 14.4
2020-Feb-21 14:10 202 3 gusting 5 15.0
2020-Feb-21 14:00 184 0 gusting 5 15.0
2020-Feb-21 13:50 183 2 gusting 5 14.4
2020-Feb-21 13:40 223 2 gusting 5 14.4
2020-Feb-21 13:20 220 2 gusting 2 14.4
2020-Feb-21 13:10 292 2 gusting 5 14.4
2020-Feb-21 13:00 273 4 gusting 5 14.4
2020-Feb-21 12:40 225 1 gusting 2 14.4
2020-Feb-21 12:30 020 1 gusting 2 14.4
2020-Feb-21 12:10 292 2 gusting 4 14.4
2020-Feb-21 12:00 270 2 gusting 2 14.4
2020-Feb-21 11:50 292 14.4
2020-Feb-21 11:40 270 2 gusting 2 14.4
2020-Feb-21 11:20 287 4 gusting 4 13.9
2020-Feb-21 11:10 270 1 gusting 2 13.9
2020-Feb-21 10:50 248 4 gusting 4 13.9
2020-Feb-21 10:40 022 1 gusting 1 13.3
2020-Feb-21 10:30 293 1 gusting 2 13.3
2020-Feb-21 10:20 302 2 gusting 2 13.9
2020-Feb-21 10:00 311 13.3
2020-Feb-21 09:50 315 1 gusting 2 13.3
2020-Feb-21 09:40 270 2 gusting 2 12.8
2020-Feb-21 09:00 248 1 gusting 4 12.8
2020-Feb-21 08:50 300 1 gusting 4 12.8
2020-Feb-21 08:40 248 2 gusting 4 12.8
2020-Feb-21 08:30 248 2 gusting 2 12.8
2020-Feb-21 08:20 305 1 gusting 2 12.8
2020-Feb-21 07:40 225 1 gusting 1 11.7
2020-Feb-21 07:30 202 0 gusting 0 11.7
2020-Feb-21 07:20 180 0 gusting 2 11.1
2020-Feb-21 07:10 202 4 gusting 5 11.1
2020-Feb-21 07:00 158 4 gusting 6 10.6
2020-Feb-21 06:40 180 6 gusting 6 10.0
2020-Feb-21 06:30 158 2 gusting 2 10.0
2020-Feb-21 06:10 180 2 gusting 5 9.4
2020-Feb-21 06:00 158 0 gusting 2 9.4
2020-Feb-21 05:50 151 2 gusting 2 9.4
2020-Feb-21 05:40 158 2 gusting 2 9.4
2020-Feb-21 05:30 112 1 gusting 2 9.4
2020-Feb-21 05:20 158 1 gusting 2 10.0
2020-Feb-21 05:10 158 3 gusting 4 10.0
2020-Feb-21 05:00 158 2 gusting 4 9.4
2020-Feb-21 04:50 170 4 gusting 5 10.0
2020-Feb-21 04:40 180 3 gusting 4 10.0
2020-Feb-21 04:30 202 2 gusting 6 10.0
2020-Feb-21 04:10 158 4 gusting 4 10.0
2020-Feb-21 03:50 168 4 gusting 6 9.4
2020-Feb-21 03:40 158 4 gusting 6 9.4
2020-Feb-21 03:20 179 0 gusting 4 9.4
2020-Feb-21 02:50 110 9.4
2020-Feb-21 02:40 112 1 gusting 6 10.0
2020-Feb-21 02:30 180 6 gusting 6 10.0
2020-Feb-21 02:10 180 5 gusting 6 10.0
2020-Feb-21 02:00 180 4 gusting 5 10.0
2020-Feb-21 01:50 167 2 gusting 5 10.0
2020-Feb-21 01:40 158 4 gusting 5 10.0
2020-Feb-21 01:20 160 5 gusting 5 10.6
2020-Feb-21 01:10 158 1 gusting 4 10.6
2020-Feb-21 00:30 158 4 gusting 5 10.0
2020-Feb-21 00:20 169 3 gusting 4 10.0
2020-Feb-21 00:10 090 3 gusting 4 10.0
2020-Feb-21 00:00 180 4 gusting 7 10.0
2020-Feb-20 23:50 202 7 gusting 7 10.0
2020-Feb-20 23:40 180 5 gusting 5 10.0
2020-Feb-20 23:30 158 1 gusting 4 10.0
2020-Feb-20 23:20 189 4 gusting 4 10.0
2020-Feb-20 23:10 135 1 gusting 6 10.0
2020-Feb-20 23:00 158 5 gusting 8 10.0
2020-Feb-20 09:40 275 5 gusting 7 13.9
2020-Feb-20 09:30 248 6 gusting 11 13.9
2020-Feb-20 09:20 334 5 gusting 11 13.9
2020-Feb-20 09:10 270 7 gusting 7 14.4
2020-Feb-20 08:50 270 5 gusting 5 13.9
2020-Feb-20 08:40 309 4 gusting 4 14.4
2020-Feb-20 08:30 270 4 gusting 10 13.9
2020-Feb-20 08:00 270 4 gusting 5 13.3
2020-Feb-20 07:50 248 1 gusting 6 13.9
2020-Feb-20 07:40 286 6 gusting 8 13.3
2020-Feb-20 07:30 225 5 gusting 8 13.3
2020-Feb-20 07:20 226 5 gusting 7 13.3
2020-Feb-20 07:10 230 2 gusting 4 13.3
2020-Feb-20 07:00 158 3 gusting 4 13.3
2020-Feb-20 06:40 286 5 gusting 7 13.3
2020-Feb-20 06:30 180 4 gusting 6 13.3
2020-Feb-20 06:10 168 3 gusting 7 12.8
2020-Feb-20 06:00 158 4 gusting 5 12.8
2020-Feb-20 05:50 292 1 gusting 2 12.8
2020-Feb-20 05:40 234 2 gusting 6 12.8
2020-Feb-20 05:30 202 4 gusting 6 12.8
2020-Feb-20 05:00 225 2 gusting 6 12.8
2020-Feb-20 04:50 248 5 gusting 8 12.8
2020-Feb-20 04:40 214 5 gusting 5 12.8
2020-Feb-20 04:30 12.8
2020-Feb-20 04:20 022 2 gusting 8 12.8
2020-Feb-20 04:10 223 4 gusting 8 12.8
2020-Feb-20 04:00 225 3 gusting 7 12.8
2020-Feb-20 03:40 202 7 gusting 7 13.3
2020-Feb-20 03:30 270 7 gusting 8 13.3
2020-Feb-20 03:20 158 2 gusting 7 13.3
2020-Feb-20 03:10 278 2 gusting 6 13.3
2020-Feb-20 02:40 197 5 gusting 6 13.3
2020-Feb-20 02:30 248 5 gusting 7 12.8
2020-Feb-20 02:20 225 4 gusting 11 12.8
2020-Feb-20 02:00 292 5 gusting 7 12.8
2020-Feb-20 01:50 292 4 gusting 6 13.3
2020-Feb-20 01:40 231 6 gusting 10 13.3
2020-Feb-20 01:30 225 5 gusting 13 13.3
2020-Feb-20 01:20 202 4 gusting 13 12.8
2020-Feb-20 01:00 248 5 gusting 8 12.8
2020-Feb-20 00:50 202 8 gusting 11 12.8
2020-Feb-20 00:20 315 9 gusting 13 13.3
2020-Feb-20 00:10 225 12 gusting 17 13.3
2020-Feb-20 00:00 245 15 gusting 17 13.3
2020-Feb-19 23:50 202 11 gusting 13 13.3
2020-Feb-19 23:40 232 11 gusting 15 13.3
2020-Feb-19 23:30 248 8 gusting 13 13.3
2020-Feb-19 23:20 225 10 gusting 17 12.8
2020-Feb-19 23:10 230 12 gusting 13 12.8
2020-Feb-19 22:50 202 9 gusting 13 12.8
2020-Feb-19 22:40 220 10 gusting 13 12.8
2020-Feb-19 22:20 202 7 gusting 10 12.8
2020-Feb-19 22:10 225 5 gusting 12 12.8
2020-Feb-19 22:00 225 8 gusting 13 12.8
2020-Feb-19 21:50 225 12 gusting 13 12.8
2020-Feb-19 21:40 216 11 gusting 13 12.8
2020-Feb-19 21:30 247 5 gusting 12 12.8
2020-Feb-19 21:20 202 8 gusting 10 12.8
2020-Feb-19 21:10 241 8 gusting 11 12.8
2020-Feb-19 21:00 248 7 gusting 8 12.8
2020-Feb-19 20:50 225 6 gusting 7 12.8
2020-Feb-19 20:10 210 3 gusting 6 13.3
2020-Feb-19 20:00 225 6 gusting 7 13.3
2020-Feb-19 19:50 248 7 gusting 8 13.3
2020-Feb-19 19:30 224 3 gusting 5 13.3
2020-Feb-19 19:00 180 3 gusting 7 12.8
2020-Feb-19 18:50 202 5 gusting 5 12.8
2020-Feb-19 18:40 202 4 gusting 7 12.8
2020-Feb-19 18:30 248 4 gusting 6 12.8
2020-Feb-19 18:10 187 4 gusting 4 12.8
2020-Feb-19 18:00 182 2 gusting 5 12.8
2020-Feb-19 17:50 202 1 gusting 5 12.8
2020-Feb-19 17:40 164 5 gusting 6 12.8
2020-Feb-19 17:30 202 6 gusting 6 12.8
2020-Feb-19 17:20 202 2 gusting 4 12.8
2020-Feb-19 17:10 238 1 gusting 2 12.8
2020-Feb-19 17:00 159 1 gusting 6 12.8